This is the latest recevied weather packets stored in our database for station/object SA7AHC. If no packets are shown the sender has not sent any weather packets the latest 10 day(s).
| Time | Temp. | Humidity | Pressure | Rain* | Wind** | Luminosity | Snow |
|---|---|---|---|---|---|---|---|
| 1787826090 | 20.56° C | 56% | 1027.4 hPa | 0 mm | - | 793 W/m² | - |
| 1787825490 | 20.56° C | 58% | 1027.4 hPa | 0 mm | - | 788 W/m² | - |
| 1787824887 | 20° C | 57% | 1027.4 hPa | 0 mm | - | 752 W/m² | - |
| 1787824285 | 18.89° C | 62% | 1027.7 hPa | 0 mm | - | 768 W/m² | - |
| 1787823685 | 18.89° C | 65% | 1027.7 hPa | 0 mm | - | 158 W/m² | - |
| 1787823083 | 18.33° C | 65% | 1027.8 hPa | 0 mm | - | 155 W/m² | - |
| 1787822474 | 19.44° C | 64% | 1027.9 hPa | 0 mm | - | 288 W/m² | - |
| 1787821874 | 18.89° C | 69% | 1027.9 hPa | 0 mm | - | 686 W/m² | - |
| 1787821275 | 17.78° C | 68% | 1028 hPa | 0 mm | - | 149 W/m² | - |
| 1787820674 | 17.78° C | 69% | 1028 hPa | 0 mm | - | 113 W/m² | - |
| 1787820075 | 17.78° C | 71% | 1028 hPa | 0 mm | - | 643 W/m² | - |
| 1787819475 | 17.78° C | 70% | 1027.9 hPa | 0 mm | - | 571 W/m² | - |
| 1787818873 | 17.22° C | 74% | 1027.8 hPa | 0 mm | - | 561 W/m² | - |
| 1787818272 | 16.67° C | 76% | 1027.8 hPa | 0 mm | - | 88 W/m² | - |
| 1787817675 | 15.56° C | 85% | 1027.9 hPa | 0 mm | - | 461 W/m² | - |
| 1787817069 | 15° C | 88% | 1027.7 hPa | 0 mm | - | 65 W/m² | - |
| 1787816466 | 14.44° C | 93% | 1027.7 hPa | 0 mm | - | 79 W/m² | - |
| 1787815864 | 13.89° C | 96% | 1027.4 hPa | 0 mm | - | 53 W/m² | - |
| 1787815262 | 13.33° C | 97% | 1027.3 hPa | 0 mm | - | 53 W/m² | - |
| 1787814662 | 13.33° C | 98% | 1027.3 hPa | 0 mm | - | 51 W/m² | - |
| 1787814062 | 13.33° C | 98% | 1027.4 hPa | 0 mm | - | 44 W/m² | - |
| 1787813462 | 13.33° C | 98% | 1027.4 hPa | 0 mm | - | 44 W/m² | - |
| 1787812862 | 12.78° C | 98% | 1027.4 hPa | 0 mm | - | 42 W/m² | - |
| 1787812262 | 12.78° C | 98% | 1027.3 hPa | 0 mm | - | 40 W/m² | - |
| 1787811661 | 12.22° C | 98% | 1027.3 hPa | 0 mm | - | 39 W/m² | - |
* Rain latest hour (hover to see other rain measurements)
** Current wind speed in m/s (hover to see current wind gust speed)